Regional Weather Roundup
Issued by NWS

Home | Current Version | Previous Version | Text Only | Print | Product List | Glossary Off
Versions: 1 2 3 4 5 6 7 8 9 10 11 12 13 14 15 16 17 18 19 20 21 22 23 24 25 26 27 28 29 30 31 32 33 34 35 36 37 38 39 40 41 42 43 44 45 46 47 48 49 50

000
ASUS45 KBOU 210507
RWRCO

WEATHER ROUNDUP FOR COLORADO
NATIONAL WEATHER SERVICE DENVER/BOULDER CO
1100 PM MDT SUN JUL 20 2014

NOTE: "FAIR" INDICATES FEW OR NO CLOUDS BELOW 12000 FEET WITH NO
SIGNIFICANT WEATHER AND/OR OBSTRUCTIONS TO VISIBILITY.

COZ001>005-013-030-031-210600-
...NORTHWEST COLORADO...

CITY           SKY/WX    TMP DP  RH WIND       PRES   REMARKS
CRAIG          MOCLDY    66  46  48 E5        30.21F
HAYDEN         MOCLDY    64  45  48 SE10      30.24F
MEEKER         MOCLDY    62  47  57 SE5       30.23S
MOUNT WERNER   MOCLDY    55  36  47 SE15G22   30.57R
STEAMBOAT SPGS MOCLDY    60  46  60 CALM      30.28F
WALDEN         MOCLDY    54  41  62 SE3       30.36S
$$

COZ006>008-011-210600-
...WEST CENTRAL VALLEYS...

CITY           SKY/WX    TMP DP  RH WIND       PRES   REMARKS
GRAND JUNCTION CLEAR     80  44  27 SE15G25   30.07R
MONTROSE       PTCLDY    73  47  39 SE8       30.18S
EAGLE          CLEAR     63  48  59 SE5       30.30S
RIFLE          PTCLDY    71  47  42 E6        30.17R
DELTA          PTCLDY    76  45  32 E6        30.13S
NUCLA          PTCLDY    75  41  29 E10       30.21R
$$

COZ017>023-064>068-210600-
...SOUTHWEST COLORADO...

CITY           SKY/WX    TMP DP  RH WIND       PRES   REMARKS
DURANGO        CLOUDY    75  41  29 E6        30.25R
CORTEZ         CLEAR     72  33  24 CALM      30.19R
PAGOSA SPRINGS CLOUDY    67  46  45 SW5       30.37R
TELLURIDE      MOCLDY    63  34  34 SE6       30.45S
WOLF CREEK PAS NOT AVBL
$$

COZ009-010-012-014-032>034-037-058>063-210600-
...CENTRAL COLORADO...

CITY           SKY/WX    TMP DP  RH WIND       PRES   REMARKS
ASPEN          PTCLDY    57  47  69 S6        30.35F
BUENA VISTA    PTCLDY    59  46  61 W10       30.40S
COPPER MTN     CLEAR     54  36  50 S17       30.69F
BERTHOUD PASS  FAIR      46  32  57 W8        30.73F
COTTONWOOD PAS PTCLDY    63  36  36 CALM      30.54S
GUNNISON       PTCLDY    57  45  62 N7        30.41R
KREMMLING      CLEAR     55  46  71 CALM      30.36S
LEADVILLE      PTCLDY    43  41  93 NE5       30.54S
MONARCH PASS   PTCLDY    50  36  57 SE6       30.80F
SALIDA         PTCLDY   N/A N/A N/A NW8       30.44F
SUNLIGHT       PTCLDY    55  41  58 CALM      30.59S
WILKERSON PASS NOT AVBL
$$

COZ069>075-210600-
...SAN LUIS VALLEY/SANGRE DE CRISTO MOUNTAINS...

CITY           SKY/WX    TMP DP  RH WIND       PRES   REMARKS
ALAMOSA        MOCLDY    58  54  86 S6        30.36R
LA VETA PASS   NOT AVBL
SAGUACHE       MOCLDY    61  45  55 E5        30.40F
$$

COZ035-036-038>040-210600-
...NORTHERN COLORADO FRONT RANGE...

CITY           SKY/WX    TMP DP  RH WIND       PRES   REMARKS
DENVER INTL AP CLOUDY    77  46  33 SW9       30.12F
DMNS CITY PARK   N/A     75  46  35 SW8G15    30.11F
AURORA         MOCLDY    74  48  39 W8        30.15F
FRONT RANGE AP NOT AVBL
ERIE MUNI ARPT CLOUDY    73  49  41 CALM      30.09F
BOULDER MUN AP CLOUDY    79  43  27 CALM      30.10F
CENTENNIAL     CLOUDY    70  46  42 SW8       30.17F
BROOMFIELD     NOT AVBL
FORT COLLINS   CLOUDY    70  55  60 SE6       30.09F
LONGMONT       CLOUDY    73  55  54 CALM      30.10F
$$

COZ041-046-047-076>085-087-088-210600-
...PIKES PEAK/PALMER DIVIDE AND SOUTHERN FOOTHILLS...

CITY           SKY/WX    TMP DP  RH WIND       PRES   REMARKS
COLO. SPRINGS  CLOUDY    73  47  39 N8        30.22R
A. F. ACADEMY  CLOUDY    71  45  39 N7        30.24S
ELLICOTT       CLOUDY    71  47  42 NW6       30.20R
FALCON         CLOUDY    69  43  39 W13       30.28R
FORT CARSON    CLOUDY    76  47  35 VRB5      30.17F
LIMON          CLOUDY    77  46  33 NW12      30.10F
MONUMENT HILL  CLOUDY    64  46  52 SW6       30.27F
TRINIDAD       CLOUDY    80  43  26 NW10      30.16F
$$

COZ042>045-048>051-090-091-210600-
...NORTHEAST COLORADO...

CITY           SKY/WX    TMP DP  RH WIND       PRES   REMARKS
GREELEY ARPT   CLOUDY    66  55  68 S5        30.07F
AKRON          CLOUDY    78  46  32 NW10      30.04F
BURLINGTON     PTCLDY    80  56  43 SW12G21   30.02R
WRAY             N/A     81  52  37 SW3       29.95F
STERLING       CLOUDY    82  52  34 NW5       29.95F
HOLYOKE        MOCLDY    73  54  49 W3        29.93F
FORT MORGAN    CLOUDY    75  49  39 W5        30.04F
$$

COZ086-089-092>099-210600-
...SOUTHEAST COLORADO...

CITY           SKY/WX    TMP DP  RH WIND       PRES   REMARKS
PUEBLO         CLOUDY    81  47  30 W5        30.08R
LA JUNTA       CLOUDY    83  55  38 SW8       30.02R
LAMAR          CLOUDY    85  60  42 S17       29.96R
SPRINGFIELD      N/A     74  61  63 S13       30.07R
$$



USA.gov is the U.S. government's official web portal to all federal, state and local government web resources and services.